Powrót do katalogu

STARLINK-36648

AktywnyŁącznośćVLEO
NORAD 67825·PAYLOAD·🇺🇸 United States

Wystrzelony Feb 16, 2026 z Vandenberg Space Force Base

Loading…

Następne Przeloty (najbliższe 24 godziny)

TLE

ŚwieżeSource: CelesTrak SupGP

Epoka: Sep 14, 2026, 22:43 UTC

1 67825C 26033E   26257.94701389  .00035629  00000+0  12905-2 0  2575
2 67825  42.9994 277.8518 0001438 264.7481  60.6390 15.27559590    16

Śledź STARLINK-36648 w czasie rzeczywistym z AllMySat

Download on the App Store